Time,TemperatureF,DewpointF,PressureIn,WindDirection,WindDirectionDegrees,WindSpeedMPH,WindSpeedGustMPH,Humidity,HourlyPrecipIn,Conditions,Clouds,dailyrainin,SoftwareType,DateUTC
2013-08-01 00:01:00,70.7,68.3,30.00,NE,45,0.0,0.0,92,0.00,RA,,0.00,WeatherDisplay:10.37,2013-08-01 04:01:00,
2013-08-01 00:02:00,70.7,68.3,30.00,NW,315,0.0,0.0,92,0.00,RA,,0.00,WeatherDisplay:10.37,2013-08-01 04:02:00,
2013-08-01 00:04:00,70.5,68.4,30.00,East,90,0.0,0.0,93,0.00,RA,,0.00,WeatherDisplay:10.37,2013-08-01 04:04:00,
2013-08-01 00:09:00,70.5,68.7,30.00,SE,135,0.0,0.0,94,0.04,RA,,0.04,WeatherDisplay:10.37,2013-08-01 04:09:00,
2013-08-01 00:14:00,70.5,68.7,30.00,NNE,22,0.0,0.0,94,0.04,RA,,0.04,WeatherDisplay:10.37,2013-08-01 04:14:00,
2013-08-01 00:19:00,70.5,69.0,30.00,NNE,22,0.0,0.0,95,0.04,,,0.04,WeatherDisplay:10.37,2013-08-01 04:19:00,
2013-08-01 00:24:00,70.5,69.0,30.00,East,90,0.0,0.0,95,0.08,RA,,0.08,WeatherDisplay:10.37,2013-08-01 04:24:00,
2013-08-01 00:29:00,70.5,69.0,30.00,NE,45,0.0,0.0,95,0.08,RA,,0.08,WeatherDisplay:10.37,2013-08-01 04:29:00,
2013-08-01 00:34:00,70.5,69.3,30.00,SE,135,0.0,0.0,96,0.04,,,0.12,WeatherDisplay:10.37,2013-08-01 04:34:00,
2013-08-01 00:39:00,70.5,69.3,30.00,SE,135,0.0,0.0,96,0.08,RA,,0.12,WeatherDisplay:10.37,2013-08-01 04:39:00,
2013-08-01 00:44:00,70.5,69.3,30.03,SE,135,0.0,0.0,96,0.24,RA,,0.12,WeatherDisplay:10.37,2013-08-01 04:44:00,
2013-08-01 00:49:00,70.5,69.3,30.03,SE,135,0.0,0.0,96,0.20,CLR,,0.12,WeatherDisplay:10.37,2013-08-01 04:49:00,
2013-08-01 00:54:00,70.5,69.6,30.00,East,90,0.0,0.0,97,0.12,CLR,,0.12,WeatherDisplay:10.37,2013-08-01 04:54:00,
2013-08-01 00:59:00,70.5,69.6,30.00,SE,135,0.0,0.0,97,0.12,CLR,,0.12,WeatherDisplay:10.37,2013-08-01 04:59:00,
2013-08-01 01:04:00,70.7,69.8,30.00,SE,135,0.0,0.0,97,0.12,CLR,,0.16,WeatherDisplay:10.37,2013-08-01 05:04:00,
2013-08-01 01:09:00,70.7,69.8,30.00,SE,135,0.0,0.0,97,0.12,RA,,0.16,WeatherDisplay:10.37,2013-08-01 05:09:00,
2013-08-01 01:14:00,70.7,69.8,30.00,SE,135,0.0,0.0,97,0.12,RA,,0.16,WeatherDisplay:10.37,2013-08-01 05:14:00,
2013-08-01 01:19:00,70.7,69.8,30.00,SE,135,0.0,0.0,97,0.12,CLR,,0.16,WeatherDisplay:10.37,2013-08-01 05:19:00,
2013-08-01 01:24:00,70.7,69.8,30.00,SE,135,0.0,0.0,97,0.12,RA,,0.20,WeatherDisplay:10.37,2013-08-01 05:24:00,
2013-08-01 01:29:00,70.7,69.8,30.00,SE,135,0.0,0.0,97,0.12,RA,,0.20,WeatherDisplay:10.37,2013-08-01 05:29:00,
2013-08-01 01:34:00,70.7,69.8,30.00,SE,135,0.0,0.0,97,0.16,RA,,0.24,WeatherDisplay:10.37,2013-08-01 05:34:00,
2013-08-01 01:39:00,70.7,70.1,29.97,SE,135,0.0,0.0,98,0.12,RA,,0.24,WeatherDisplay:10.37,2013-08-01 05:39:00,
2013-08-01 01:44:00,70.7,70.1,29.97,SE,135,0.0,0.0,98,0.12,CLR,,0.24,WeatherDisplay:10.37,2013-08-01 05:44:00,
2013-08-01 01:49:00,70.9,70.3,29.97,SE,135,0.0,0.0,98,0.12,CLR,,0.24,WeatherDisplay:10.37,2013-08-01 05:49:00,
2013-08-01 01:54:00,70.9,70.3,29.97,SE,135,0.0,0.0,98,0.12,CLR,,0.24,WeatherDisplay:10.37,2013-08-01 05:54:00,
2013-08-01 01:55:00,70.9,70.3,29.97,SE,135,0.0,0.0,98,0.12,CLR,,0.24,WeatherDisplay:10.37,2013-08-01 05:55:00,
2013-08-01 02:00:00,70.9,70.3,29.97,SE,135,0.0,0.0,98,0.12,CLR,,0.24,WeatherDisplay:10.37,2013-08-01 06:00:00,
2013-08-01 02:05:00,70.9,70.3,29.97,SE,135,0.0,0.0,98,0.12,CLR,,0.24,WeatherDisplay:10.37,2013-08-01 06:05:00,
2013-08-01 02:10:00,70.9,70.3,29.97,SE,135,0.0,0.0,98,0.08,CLR,,0.24,WeatherDisplay:10.37,2013-08-01 06:10:00,
2013-08-01 02:15:00,70.9,70.3,29.97,SE,135,0.0,0.0,98,0.08,CLR,,0.24,WeatherDisplay:10.37,2013-08-01 06:15:00,
2013-08-01 02:20:00,70.9,70.3,29.97,SE,135,0.0,0.0,98,0.08,CLR,,0.24,WeatherDisplay:10.37,2013-08-01 06:20:00,
2013-08-01 02:25:00,71.1,70.5,29.97,SE,135,0.0,0.0,98,0.04,CLR,,0.24,WeatherDisplay:10.37,2013-08-01 06:25:00,
2013-08-01 02:30:00,71.2,70.6,29.97,SE,135,0.0,0.0,98,0.04,CLR,,0.24,WeatherDisplay:10.37,2013-08-01 06:30:00,
2013-08-01 02:35:00,71.2,70.6,29.97,NE,45,0.0,0.0,98,0.00,CLR,,0.24,WeatherDisplay:10.37,2013-08-01 06:35:00,
2013-08-01 02:40:00,71.2,70.6,29.97,NE,45,0.0,0.0,98,0.00,CLR,,0.24,WeatherDisplay:10.37,2013-08-01 06:40:00,
2013-08-01 02:45:00,71.2,70.6,29.97,NE,45,0.0,0.0,98,0.00,CLR,,0.24,WeatherDisplay:10.37,2013-08-01 06:45:00,
2013-08-01 02:50:00,71.2,70.6,29.97,NE,45,0.0,0.0,98,0.00,CLR,,0.24,WeatherDisplay:10.37,2013-08-01 06:50:00,
2013-08-01 02:55:00,71.4,70.8,29.94,NE,45,0.0,0.0,98,0.00,CLR,,0.24,WeatherDisplay:10.37,2013-08-01 06:55:00,
2013-08-01 03:00:00,71.4,70.8,29.94,NE,45,0.0,0.0,98,0.00,CLR,,0.24,WeatherDisplay:10.37,2013-08-01 07:00:00,
2013-08-01 03:05:00,71.4,70.8,29.94,NE,45,0.0,0.0,98,0.00,CLR,,0.24,WeatherDisplay:10.37,2013-08-01 07:05:00,
2013-08-01 03:10:00,71.4,70.8,29.94,NNE,22,0.0,0.0,98,0.00,CLR,,0.24,WeatherDisplay:10.37,2013-08-01 07:10:00,
2013-08-01 03:15:00,71.6,71.0,29.94,SE,135,0.0,0.0,98,0.00,CLR,,0.24,WeatherDisplay:10.37,2013-08-01 07:15:00,
2013-08-01 03:20:00,71.6,71.0,29.94,East,90,0.0,0.0,98,0.00,CLR,,0.24,WeatherDisplay:10.37,2013-08-01 07:20:00,
2013-08-01 03:25:00,71.6,71.0,29.94,SE,135,0.0,0.0,98,0.00,CLR,,0.24,WeatherDisplay:10.37,2013-08-01 07:25:00,
2013-08-01 03:30:00,71.6,71.0,29.94,SE,135,0.0,0.0,98,0.00,CLR,,0.24,WeatherDisplay:10.37,2013-08-01 07:30:00,
2013-08-01 03:35:00,71.6,71.0,29.94,South,180,0.0,0.0,98,0.00,CLR,,0.24,WeatherDisplay:10.37,2013-08-01 07:35:00,
2013-08-01 03:40:00,71.6,71.0,29.94,South,180,0.0,0.0,98,0.00,CLR,,0.24,WeatherDisplay:10.37,2013-08-01 07:40:00,
2013-08-01 03:45:00,71.8,71.2,29.94,South,180,0.0,0.0,98,0.00,CLR,,0.24,WeatherDisplay:10.37,2013-08-01 07:45:00,
2013-08-01 03:50:00,71.8,71.2,29.94,SSE,158,0.0,0.0,98,0.00,CLR,,0.24,WeatherDisplay:10.37,2013-08-01 07:50:00,
2013-08-01 03:55:00,71.8,71.2,29.94,SSE,158,0.0,0.0,98,0.00,CLR,,0.24,WeatherDisplay:10.37,2013-08-01 07:55:00,
2013-08-01 04:00:00,71.8,71.2,29.94,SE,135,0.0,0.0,98,0.00,CLR,,0.24,WeatherDisplay:10.37,2013-08-01 08:00:00,
2013-08-01 04:06:00,71.8,71.2,29.94,NNE,22,0.0,0.0,98,0.00,CLR,,0.24,WeatherDisplay:10.37,2013-08-01 08:06:00,
2013-08-01 04:11:00,71.8,71.2,29.94,NNE,22,0.0,0.0,98,0.00,CLR,,0.24,WeatherDisplay:10.37,2013-08-01 08:11:00,
2013-08-01 04:16:00,71.8,71.2,29.94,SE,135,0.0,0.0,98,0.00,CLR,,0.24,WeatherDisplay:10.37,2013-08-01 08:16:00,
2013-08-01 04:21:00,71.8,71.2,29.94,East,90,0.0,0.0,98,0.00,CLR,,0.24,WeatherDisplay:10.37,2013-08-01 08:21:00,
2013-08-01 04:26:00,71.8,71.2,29.94,ENE,68,0.0,0.0,98,0.00,CLR,,0.24,WeatherDisplay:10.37,2013-08-01 08:26:00,
2013-08-01 04:31:00,71.8,71.2,29.94,ENE,68,0.0,0.0,98,0.00,CLR,,0.24,WeatherDisplay:10.37,2013-08-01 08:31:00,
2013-08-01 04:36:00,71.8,71.2,29.94,ENE,68,0.0,0.0,98,0.00,CLR,,0.24,WeatherDisplay:10.37,2013-08-01 08:36:00,
2013-08-01 04:41:00,71.8,71.2,29.91,ENE,68,0.0,0.0,98,0.00,CLR,,0.24,WeatherDisplay:10.37,2013-08-01 08:41:00,
2013-08-01 04:47:00,71.8,71.2,29.91,ENE,68,0.0,0.0,98,0.00,CLR,,0.24,WeatherDisplay:10.37,2013-08-01 08:47:00,
2013-08-01 04:52:00,71.8,71.2,29.91,South,180,0.0,0.0,98,0.00,CLR,,0.24,WeatherDisplay:10.37,2013-08-01 08:52:00,
2013-08-01 04:58:00,71.8,71.2,29.91,NE,45,0.0,0.0,98,0.00,CLR,,0.24,WeatherDisplay:10.37,2013-08-01 08:58:00,
2013-08-01 05:04:00,71.8,71.2,29.91,NE,45,0.0,0.0,98,0.00,CLR,,0.24,WeatherDisplay:10.37,2013-08-01 09:04:00,
2013-08-01 05:10:00,71.8,71.2,29.94,NE,45,0.0,0.0,98,0.00,CLR,,0.24,WeatherDisplay:10.37,2013-08-01 09:10:00,
2013-08-01 05:15:00,72.0,71.4,29.94,NE,45,0.0,0.0,98,0.00,CLR,,0.24,WeatherDisplay:10.37,2013-08-01 09:15:00,
2013-08-01 05:21:00,72.0,71.4,29.94,NE,45,0.0,0.0,98,0.00,CLR,,0.24,WeatherDisplay:10.37,2013-08-01 09:21:00,
2013-08-01 05:27:00,72.0,71.4,29.94,NE,45,0.0,0.0,98,0.00,CLR,,0.24,WeatherDisplay:10.37,2013-08-01 09:27:00,
2013-08-01 05:32:00,72.0,71.4,29.94,NE,45,0.0,0.0,98,0.00,CLR,,0.24,WeatherDisplay:10.37,2013-08-01 09:32:00,
2013-08-01 05:39:00,72.0,71.4,29.91,SSE,158,0.0,0.0,98,0.00,CLR,,0.24,WeatherDisplay:10.37,2013-08-01 09:39:00,
2013-08-01 05:44:00,72.0,71.4,29.91,SSE,158,0.0,0.0,98,0.00,CLR,,0.24,WeatherDisplay:10.37,2013-08-01 09:44:00,
2013-08-01 05:50:00,72.0,71.4,29.91,SSE,158,0.0,0.0,98,0.00,CLR,,0.24,WeatherDisplay:10.37,2013-08-01 09:50:00,
2013-08-01 05:55:00,72.0,71.4,29.94,SE,135,0.0,0.0,98,0.00,CLR,,0.24,WeatherDisplay:10.37,2013-08-01 09:55:00,
2013-08-01 06:01:00,72.0,71.4,29.94,SE,135,0.0,0.0,98,0.00,CLR,,0.24,WeatherDisplay:10.37,2013-08-01 10:01:00,
2013-08-01 06:06:00,72.0,71.4,29.94,SE,135,0.0,0.0,98,0.00,CLR,,0.24,WeatherDisplay:10.37,2013-08-01 10:06:00,
2013-08-01 06:12:00,72.0,71.4,29.94,SE,135,0.0,0.0,98,0.00,CLR,,0.24,WeatherDisplay:10.37,2013-08-01 10:12:00,
2013-08-01 06:18:00,72.0,71.4,29.94,SE,135,0.0,0.0,98,0.00,CLR,,0.24,WeatherDisplay:10.37,2013-08-01 10:18:00,
2013-08-01 06:23:00,72.0,71.4,29.94,SE,135,0.0,0.0,98,0.00,CLR,,0.24,WeatherDisplay:10.37,2013-08-01 10:23:00,
2013-08-01 06:28:00,72.0,71.4,29.94,SE,135,0.0,0.0,98,0.00,CLR,,0.24,WeatherDisplay:10.37,2013-08-01 10:28:00,
2013-08-01 06:33:00,72.0,71.4,29.94,SE,135,0.0,0.0,98,0.00,CLR,,0.24,WeatherDisplay:10.37,2013-08-01 10:33:00,
2013-08-01 06:39:00,72.0,71.4,29.91,ESE,112,0.0,0.0,98,0.00,CLR,,0.24,WeatherDisplay:10.37,2013-08-01 10:39:00,
2013-08-01 06:44:00,72.0,71.4,29.91,SE,135,0.0,0.0,98,0.00,CLR,,0.24,WeatherDisplay:10.37,2013-08-01 10:44:00,
2013-08-01 06:52:00,72.0,71.4,29.91,NNW,338,0.0,0.0,98,0.00,CLR,,0.24,WeatherDisplay:10.37,2013-08-01 10:52:00,
2013-08-01 06:57:00,72.0,71.4,29.94,NNW,338,0.0,0.0,98,0.00,CLR,,0.24,WeatherDisplay:10.37,2013-08-01 10:57:00,
2013-08-01 07:03:00,72.0,71.4,29.94,NNW,338,0.0,0.0,98,0.00,CLR,,0.24,WeatherDisplay:10.37,2013-08-01 11:03:00,
2013-08-01 07:08:00,72.0,71.4,29.94,NNW,338,0.0,0.0,98,0.00,CLR,,0.24,WeatherDisplay:10.37,2013-08-01 11:08:00,
2013-08-01 07:14:00,72.0,71.4,29.91,SSE,158,0.0,0.0,98,0.00,CLR,,0.24,WeatherDisplay:10.37,2013-08-01 11:14:00,
2013-08-01 07:19:00,72.0,71.4,29.91,SE,135,0.0,0.0,98,0.00,CLR,,0.24,WeatherDisplay:10.37,2013-08-01 11:19:00,
2013-08-01 07:24:00,72.0,71.4,29.91,SE,135,0.0,0.0,98,0.00,CLR,,0.24,WeatherDisplay:10.37,2013-08-01 11:24:00,
2013-08-01 07:30:00,72.0,71.4,29.91,ENE,68,0.0,0.0,98,0.00,CLR,,0.24,WeatherDisplay:10.37,2013-08-01 11:30:00,
2013-08-01 07:35:00,71.8,71.2,29.91,South,180,0.0,0.0,98,0.00,CLR,,0.24,WeatherDisplay:10.37,2013-08-01 11:35:00,
2013-08-01 07:40:00,72.0,71.4,29.91,South,180,0.0,0.0,98,0.00,CLR,,0.24,WeatherDisplay:10.37,2013-08-01 11:40:00,
2013-08-01 07:45:00,72.0,71.4,29.91,South,180,0.0,0.0,98,0.00,CLR,,0.24,WeatherDisplay:10.37,2013-08-01 11:45:00,
2013-08-01 07:51:00,72.0,71.4,29.91,South,180,0.0,0.0,98,0.00,CLR,,0.24,WeatherDisplay:10.37,2013-08-01 11:51:00,
2013-08-01 07:56:00,72.1,71.5,29.91,WNW,292,0.0,0.0,98,0.00,CLR,,0.24,WeatherDisplay:10.37,2013-08-01 11:56:00,
2013-08-01 08:01:00,72.1,71.5,29.91,SSE,158,0.0,0.0,98,0.00,CLR,,0.24,WeatherDisplay:10.37,2013-08-01 12:01:00,
2013-08-01 08:07:00,72.3,71.7,29.91,SE,135,0.0,0.0,98,0.00,CLR,,0.24,WeatherDisplay:10.37,2013-08-01 12:07:00,
2013-08-01 08:12:00,72.3,71.7,29.94,NNW,338,0.0,0.0,98,0.00,CLR,,0.24,WeatherDisplay:10.37,2013-08-01 12:12:00,
2013-08-01 08:17:00,72.3,71.7,29.94,NNE,22,0.0,0.0,98,0.00,CLR,,0.24,WeatherDisplay:10.37,2013-08-01 12:17:00,
2013-08-01 08:22:00,72.5,71.9,29.94,NNE,22,0.0,0.0,98,0.00,CLR,,0.24,WeatherDisplay:10.37,2013-08-01 12:22:00,
2013-08-01 08:27:00,72.7,72.1,29.94,SSW,202,0.0,0.0,98,0.00,CLR,,0.24,WeatherDisplay:10.37,2013-08-01 12:27:00,
2013-08-01 08:33:00,72.9,72.3,29.94,SE,135,0.0,0.0,98,0.00,CLR,,0.24,WeatherDisplay:10.37,2013-08-01 12:33:00,
2013-08-01 08:39:00,72.9,72.3,29.94,SE,135,0.0,0.0,98,0.00,CLR,,0.24,WeatherDisplay:10.37,2013-08-01 12:39:00,
2013-08-01 08:44:00,73.2,72.6,29.94,South,180,0.0,0.0,98,0.00,CLR,,0.24,WeatherDisplay:10.37,2013-08-01 12:44:00,
2013-08-01 08:49:00,73.4,72.8,29.94,NNE,22,0.0,0.0,98,0.00,CLR,,0.24,WeatherDisplay:10.37,2013-08-01 12:49:00,
2013-08-01 08:54:00,73.6,73.0,29.94,NNE,22,0.0,0.0,98,0.00,CLR,,0.24,WeatherDisplay:10.37,2013-08-01 12:54:00,
2013-08-01 08:59:00,73.9,73.3,29.94,NNE,22,0.0,0.0,98,0.00,CLR,,0.24,WeatherDisplay:10.37,2013-08-01 12:59:00,
2013-08-01 09:04:00,73.8,73.2,29.94,NNE,22,0.0,0.0,98,0.00,CLR,,0.24,WeatherDisplay:10.37,2013-08-01 13:04:00,
2013-08-01 09:09:00,73.8,73.2,29.94,NNE,22,0.0,0.0,98,0.00,CLR,,0.24,WeatherDisplay:10.37,2013-08-01 13:09:00,
2013-08-01 09:15:00,73.6,73.0,29.94,NNE,22,0.0,0.0,98,0.00,CLR,,0.24,WeatherDisplay:10.37,2013-08-01 13:15:00,
2013-08-01 09:20:00,73.6,73.0,29.94,SE,135,0.0,0.0,98,0.00,CLR,,0.24,WeatherDisplay:10.37,2013-08-01 13:20:00,
2013-08-01 09:25:00,73.9,73.3,29.94,SW,225,0.0,0.0,98,0.00,CLR,,0.24,WeatherDisplay:10.37,2013-08-01 13:25:00,
2013-08-01 09:30:00,74.1,73.5,29.94,NE,45,0.0,0.0,98,0.00,CLR,,0.24,WeatherDisplay:10.37,2013-08-01 13:30:00,
2013-08-01 09:35:00,74.5,73.9,29.94,NE,45,0.0,0.0,98,0.00,CLR,,0.24,WeatherDisplay:10.37,2013-08-01 13:35:00,
2013-08-01 09:40:00,74.5,73.9,29.94,SSE,158,0.0,0.0,98,0.00,CLR,,0.24,WeatherDisplay:10.37,2013-08-01 13:40:00,
2013-08-01 09:48:00,74.7,74.1,29.94,SE,135,0.0,0.0,98,0.00,CLR,,0.24,WeatherDisplay:10.37,2013-08-01 13:48:00,
2013-08-01 09:53:00,74.7,74.1,29.94,SW,225,0.0,0.0,98,0.00,CLR,,0.24,WeatherDisplay:10.37,2013-08-01 13:53:00,
2013-08-01 09:58:00,74.5,73.9,29.94,South,180,0.0,0.0,98,0.00,CLR,,0.24,WeatherDisplay:10.37,2013-08-01 13:58:00,
2013-08-01 10:03:00,74.5,73.9,29.94,East,90,0.0,0.0,98,0.00,CLR,,0.24,WeatherDisplay:10.37,2013-08-01 14:03:00,
2013-08-01 10:08:00,74.5,73.9,29.94,East,90,0.0,0.0,98,0.00,CLR,,0.24,WeatherDisplay:10.37,2013-08-01 14:08:00,
2013-08-01 10:14:00,74.7,74.1,29.94,East,90,0.0,0.0,98,0.00,CLR,,0.24,WeatherDisplay:10.37,2013-08-01 14:14:00,
2013-08-01 10:19:00,74.8,74.2,29.94,NE,45,0.0,0.0,98,0.00,CLR,,0.24,WeatherDisplay:10.37,2013-08-01 14:19:00,
2013-08-01 10:24:00,74.8,74.2,29.94,South,180,0.0,0.0,98,0.00,CLR,,0.24,WeatherDisplay:10.37,2013-08-01 14:24:00,
2013-08-01 10:29:00,74.8,74.2,29.94,SSE,158,0.0,0.0,98,0.00,CLR,,0.24,WeatherDisplay:10.37,2013-08-01 14:29:00,
2013-08-01 10:35:00,74.7,74.1,29.94,WNW,292,0.0,0.0,98,0.00,CLR,,0.24,WeatherDisplay:10.37,2013-08-01 14:35:00,
2013-08-01 10:40:00,74.3,73.4,29.94,NNE,22,0.0,0.0,97,0.00,CLR,,0.24,WeatherDisplay:10.37,2013-08-01 14:40:00,
2013-08-01 10:45:00,74.3,73.4,29.94,NNE,22,0.0,0.0,97,0.00,CLR,,0.24,WeatherDisplay:10.37,2013-08-01 14:45:00,
2013-08-01 10:50:00,74.3,73.4,29.94,NNE,22,0.0,0.0,97,0.00,CLR,,0.24,WeatherDisplay:10.37,2013-08-01 14:50:00,
2013-08-01 10:56:00,74.3,73.4,29.91,NNE,22,0.0,0.0,97,0.00,CLR,,0.24,WeatherDisplay:10.37,2013-08-01 14:56:00,
2013-08-01 11:01:00,74.1,73.2,29.91,SSE,158,0.0,0.0,97,0.00,CLR,,0.24,WeatherDisplay:10.37,2013-08-01 15:01:00,
2013-08-01 11:06:00,74.1,72.9,29.91,SSE,158,0.0,0.0,96,0.00,CLR,,0.24,WeatherDisplay:10.37,2013-08-01 15:06:00,
2013-08-01 11:11:00,74.3,73.1,29.94,ESE,112,0.0,0.0,96,0.00,CLR,,0.24,WeatherDisplay:10.37,2013-08-01 15:11:00,
2013-08-01 11:16:00,74.5,73.3,29.94,ESE,112,0.0,0.0,96,0.00,CLR,,0.24,WeatherDisplay:10.37,2013-08-01 15:16:00,
2013-08-01 11:22:00,75.0,73.8,29.94,NNE,22,0.0,0.0,96,0.00,CLR,,0.24,WeatherDisplay:10.37,2013-08-01 15:22:00,
2013-08-01 11:29:00,75.4,73.8,29.91,NNE,22,0.0,0.0,95,0.00,CLR,,0.24,WeatherDisplay:10.37,2013-08-01 15:29:00,
2013-08-01 11:34:00,75.0,73.2,29.91,NNE,22,0.0,0.0,94,0.00,CLR,,0.24,WeatherDisplay:10.37,2013-08-01 15:34:00,
2013-08-01 11:40:00,75.2,73.0,29.94,NNE,22,0.0,0.0,93,0.00,CLR,,0.24,WeatherDisplay:10.37,2013-08-01 15:40:00,
2013-08-01 11:45:00,75.2,73.0,29.94,NNE,22,0.0,0.0,93,0.00,CLR,,0.24,WeatherDisplay:10.37,2013-08-01 15:45:00,
2013-08-01 11:51:00,75.2,72.7,29.94,SSW,202,0.0,0.0,92,0.00,CLR,,0.24,WeatherDisplay:10.37,2013-08-01 15:51:00,
2013-08-01 11:57:00,75.7,72.9,29.91,NNE,22,0.0,0.0,91,0.00,CLR,,0.24,WeatherDisplay:10.37,2013-08-01 15:57:00,
2013-08-01 12:02:00,76.6,73.5,29.91,SW,225,0.0,0.0,90,0.00,CLR,,0.24,WeatherDisplay:10.37,2013-08-01 16:02:00,
2013-08-01 12:07:00,77.0,72.5,29.91,SSE,158,0.0,0.0,86,0.00,CLR,,0.24,WeatherDisplay:10.37,2013-08-01 16:07:00,
2013-08-01 12:12:00,77.7,72.8,29.91,SE,135,0.0,0.0,85,0.00,CLR,,0.24,WeatherDisplay:10.37,2013-08-01 16:12:00,
2013-08-01 12:18:00,78.6,72.3,29.91,NE,45,0.0,0.0,81,0.00,CLR,,0.24,WeatherDisplay:10.37,2013-08-01 16:18:00,
2013-08-01 12:23:00,78.8,72.1,29.91,SE,135,0.0,0.0,80,0.00,CLR,,0.24,WeatherDisplay:10.37,2013-08-01 16:23:00,
2013-08-01 12:28:00,78.8,72.1,29.91,SE,135,0.0,0.0,80,0.00,CLR,,0.24,WeatherDisplay:10.37,2013-08-01 16:28:00,
2013-08-01 12:34:00,78.1,71.8,29.91,WSW,248,0.0,0.0,81,0.00,CLR,,0.24,WeatherDisplay:10.37,2013-08-01 16:34:00,
2013-08-01 12:40:00,77.7,71.8,29.91,WSW,248,0.0,0.0,82,0.00,CLR,,0.24,WeatherDisplay:10.37,2013-08-01 16:40:00,
2013-08-01 12:46:00,77.5,72.3,29.91,WSW,248,0.0,0.0,84,0.00,CLR,,0.24,WeatherDisplay:10.37,2013-08-01 16:46:00,
2013-08-01 12:52:00,77.2,72.3,29.91,South,180,0.0,0.0,85,0.00,CLR,,0.24,WeatherDisplay:10.37,2013-08-01 16:52:00,
2013-08-01 12:58:00,77.9,73.0,29.91,SW,225,0.0,0.0,85,0.00,CLR,,0.24,WeatherDisplay:10.37,2013-08-01 16:58:00,
2013-08-01 13:03:00,78.8,72.8,29.91,North,0,0.0,0.0,82,0.00,CLR,,0.24,WeatherDisplay:10.37,2013-08-01 17:03:00,
2013-08-01 13:08:00,80.2,72.4,29.91,North,0,0.0,0.0,77,0.00,CLR,,0.24,WeatherDisplay:10.37,2013-08-01 17:08:00,
2013-08-01 13:13:00,81.0,71.5,29.91,SE,135,0.0,0.0,73,0.00,CLR,,0.24,WeatherDisplay:10.37,2013-08-01 17:13:00,
2013-08-01 13:19:00,81.7,71.8,29.91,NNW,338,0.0,0.0,72,0.00,CLR,,0.24,WeatherDisplay:10.37,2013-08-01 17:19:00,
2013-08-01 13:24:00,83.3,71.6,29.91,WNW,292,0.0,0.0,68,0.00,CLR,,0.24,WeatherDisplay:10.37,2013-08-01 17:24:00,
2013-08-01 13:29:00,84.0,70.5,29.91,NE,45,0.0,0.0,64,0.00,CLR,,0.24,WeatherDisplay:10.37,2013-08-01 17:29:00,
2013-08-01 13:35:00,85.5,70.0,29.91,SE,135,0.0,0.0,60,0.00,CLR,,0.24,WeatherDisplay:10.37,2013-08-01 17:35:00,
2013-08-01 13:41:00,86.4,67.8,29.88,South,180,0.0,0.0,54,0.00,CLR,,0.24,WeatherDisplay:10.37,2013-08-01 17:41:00,
2013-08-01 13:46:00,87.1,67.3,29.88,SE,135,0.0,0.0,52,0.00,CLR,,0.24,WeatherDisplay:10.37,2013-08-01 17:46:00,
2013-08-01 13:52:00,87.8,68.0,29.88,NNE,22,0.0,0.0,52,0.00,CLR,,0.24,WeatherDisplay:10.37,2013-08-01 17:52:00,
2013-08-01 13:57:00,88.3,67.3,29.88,ESE,112,0.0,0.0,50,0.00,CLR,,0.24,WeatherDisplay:10.37,2013-08-01 17:57:00,
2013-08-01 14:02:00,89.6,67.3,29.88,ESE,112,0.0,0.0,48,0.00,CLR,,0.24,WeatherDisplay:10.37,2013-08-01 18:02:00,
2013-08-01 14:07:00,90.3,64.8,29.88,SE,135,0.0,0.0,43,0.00,CLR,,0.24,WeatherDisplay:10.37,2013-08-01 18:07:00,
2013-08-01 14:12:00,90.3,63.4,29.88,WSW,248,0.0,0.0,41,0.00,CLR,,0.24,WeatherDisplay:10.37,2013-08-01 18:12:00,
2013-08-01 14:17:00,87.3,62.7,29.88,NNW,338,0.0,0.0,44,0.00,CLR,,0.24,WeatherDisplay:10.37,2013-08-01 18:17:00,
2013-08-01 14:22:00,88.2,64.1,29.88,SE,135,0.0,0.0,45,0.00,CLR,,0.24,WeatherDisplay:10.37,2013-08-01 18:22:00,
2013-08-01 14:27:00,87.3,64.0,29.88,SE,135,0.0,0.0,46,0.00,CLR,,0.24,WeatherDisplay:10.37,2013-08-01 18:27:00,
2013-08-01 14:34:00,88.2,66.0,29.88,West,270,0.0,0.0,48,0.00,CLR,,0.24,WeatherDisplay:10.37,2013-08-01 18:34:00,
2013-08-01 14:39:00,88.3,64.3,29.88,West,270,0.0,0.0,45,0.00,CLR,,0.24,WeatherDisplay:10.37,2013-08-01 18:39:00,
2013-08-01 14:45:00,88.5,64.5,29.88,North,0,0.0,0.0,45,0.00,CLR,,0.24,WeatherDisplay:10.37,2013-08-01 18:45:00,
2013-08-01 14:50:00,87.3,65.8,29.88,North,0,0.0,0.0,49,0.00,CLR,,0.24,WeatherDisplay:10.37,2013-08-01 18:50:00,
2013-08-01 14:55:00,88.3,66.8,29.88,ENE,68,0.0,0.0,49,0.00,CLR,,0.24,WeatherDisplay:10.37,2013-08-01 18:55:00,
2013-08-01 15:00:00,87.8,63.8,29.88,ESE,112,0.0,0.0,45,0.00,CLR,,0.24,WeatherDisplay:10.37,2013-08-01 19:00:00,
2013-08-01 15:05:00,88.2,67.2,29.88,North,0,0.0,0.0,50,0.00,CLR,,0.24,WeatherDisplay:10.37,2013-08-01 19:05:00,
2013-08-01 15:10:00,88.2,65.4,29.88,North,0,0.0,0.0,47,0.00,CLR,,0.24,WeatherDisplay:10.37,2013-08-01 19:10:00,
2013-08-01 15:18:00,88.3,66.8,29.88,North,0,0.0,0.0,49,0.00,CLR,,0.24,WeatherDisplay:10.37,2013-08-01 19:18:00,
2013-08-01 15:23:00,88.3,67.3,29.88,North,0,0.0,0.0,50,0.00,CLR,,0.24,WeatherDisplay:10.37,2013-08-01 19:23:00,
2013-08-01 15:28:00,88.5,66.3,29.85,North,0,0.0,0.0,48,0.00,CLR,,0.24,WeatherDisplay:10.37,2013-08-01 19:28:00,
2013-08-01 15:33:00,90.0,65.8,29.85,North,0,0.0,0.0,45,0.00,CLR,,0.24,WeatherDisplay:10.37,2013-08-01 19:33:00,
2013-08-01 15:39:00,90.0,63.1,29.85,North,0,0.0,0.0,41,0.00,CLR,,0.24,WeatherDisplay:10.37,2013-08-01 19:39:00,
2013-08-01 15:44:00,91.0,65.4,29.85,NW,315,0.0,0.0,43,0.00,CLR,,0.24,WeatherDisplay:10.37,2013-08-01 19:44:00,
2013-08-01 15:50:00,91.2,64.9,29.85,WSW,248,0.0,0.0,42,0.00,CLR,,0.24,WeatherDisplay:10.37,2013-08-01 19:50:00,
2013-08-01 15:55:00,89.2,63.8,29.85,NW,315,0.0,0.0,43,0.00,CLR,,0.24,WeatherDisplay:10.37,2013-08-01 19:55:00,
2013-08-01 16:00:00,88.7,65.9,29.85,NW,315,0.0,0.0,47,0.00,CLR,,0.24,WeatherDisplay:10.37,2013-08-01 20:00:00,
2013-08-01 16:05:00,87.6,67.3,29.85,SSE,158,0.0,0.0,51,0.00,CLR,,0.24,WeatherDisplay:10.37,2013-08-01 20:05:00,
2013-08-01 16:11:00,87.1,67.9,29.85,SSE,158,0.0,0.0,53,0.00,CLR,,0.24,WeatherDisplay:10.37,2013-08-01 20:11:00,
2013-08-01 16:17:00,86.2,69.7,29.85,West,270,0.0,0.0,58,0.00,CLR,,0.24,WeatherDisplay:10.37,2013-08-01 20:17:00,
2013-08-01 16:22:00,85.3,69.8,29.85,West,270,0.0,0.0,60,0.00,CLR,,0.24,WeatherDisplay:10.37,2013-08-01 20:22:00,
2013-08-01 16:27:00,84.6,70.1,29.88,West,270,0.0,0.0,62,0.00,CLR,,0.24,WeatherDisplay:10.37,2013-08-01 20:27:00,
2013-08-01 16:33:00,83.8,70.8,29.88,West,270,0.0,0.0,65,0.00,CLR,,0.24,WeatherDisplay:10.37,2013-08-01 20:33:00,
2013-08-01 16:38:00,83.1,71.0,29.88,West,270,0.0,0.0,67,0.00,CLR,,0.24,WeatherDisplay:10.37,2013-08-01 20:38:00,
2013-08-01 16:42:00,82.8,71.5,29.85,West,270,0.0,0.0,69,0.00,CLR,,0.24,WeatherDisplay:10.37,2013-08-01 20:42:00,
2013-08-01 16:47:00,82.4,72.0,29.85,West,270,0.0,0.0,71,0.00,CLR,,0.24,WeatherDisplay:10.37,2013-08-01 20:47:00,
2013-08-01 16:52:00,82.0,72.5,29.85,West,270,0.0,0.0,73,0.00,CLR,,0.24,WeatherDisplay:10.37,2013-08-01 20:52:00,
2013-08-01 16:57:00,81.5,72.0,29.85,West,270,0.0,0.0,73,0.00,CLR,,0.24,WeatherDisplay:10.37,2013-08-01 20:57:00,
2013-08-01 17:03:00,81.3,71.8,29.85,West,270,0.0,0.0,73,0.00,CLR,,0.24,WeatherDisplay:10.37,2013-08-01 21:03:00,
2013-08-01 17:08:00,81.1,72.5,29.85,West,270,0.0,0.0,75,0.00,CLR,,0.24,WeatherDisplay:10.37,2013-08-01 21:08:00,
2013-08-01 17:13:00,81.0,72.7,29.85,West,270,0.0,0.0,76,0.00,CLR,,0.24,WeatherDisplay:10.37,2013-08-01 21:13:00,
2013-08-01 17:19:00,81.0,73.1,29.85,West,270,0.0,0.0,77,0.00,CLR,,0.24,WeatherDisplay:10.37,2013-08-01 21:19:00,
2013-08-01 17:24:00,81.0,73.1,29.85,West,270,0.0,0.0,77,0.00,CLR,,0.24,WeatherDisplay:10.37,2013-08-01 21:24:00,
2013-08-01 17:29:00,80.6,72.7,29.85,West,270,0.0,0.0,77,0.00,CLR,,0.24,WeatherDisplay:10.37,2013-08-01 21:29:00,
2013-08-01 17:34:00,80.4,72.9,29.85,West,270,0.0,0.0,78,0.00,CLR,,0.24,WeatherDisplay:10.37,2013-08-01 21:34:00,
2013-08-01 17:39:00,80.2,72.8,29.85,West,270,0.0,0.0,78,0.00,CLR,,0.24,WeatherDisplay:10.37,2013-08-01 21:39:00,
2013-08-01 17:44:00,80.1,73.7,29.85,West,270,0.0,0.0,81,0.00,CLR,,0.24,WeatherDisplay:10.37,2013-08-01 21:44:00,
2013-08-01 17:49:00,79.9,74.3,29.85,SW,225,0.0,0.0,83,0.00,CLR,,0.24,WeatherDisplay:10.37,2013-08-01 21:49:00,
2013-08-01 17:54:00,79.9,74.3,29.85,SW,225,0.0,0.0,83,0.00,CLR,,0.24,WeatherDisplay:10.37,2013-08-01 21:54:00,
2013-08-01 17:59:00,80.1,74.1,29.85,East,90,0.0,0.0,82,0.00,CLR,,0.24,WeatherDisplay:10.37,2013-08-01 21:59:00,
2013-08-01 18:04:00,80.4,73.3,29.85,WNW,292,0.0,0.0,79,0.00,CLR,,0.24,WeatherDisplay:10.37,2013-08-01 22:04:00,
2013-08-01 18:09:00,80.6,73.1,29.85,North,0,0.0,0.0,78,0.00,CLR,,0.24,WeatherDisplay:10.37,2013-08-01 22:09:00,
2013-08-01 18:14:00,80.8,73.3,29.88,North,0,0.0,0.0,78,0.00,CLR,,0.24,WeatherDisplay:10.37,2013-08-01 22:14:00,
2013-08-01 18:20:00,81.1,73.2,29.88,ESE,112,0.0,0.0,77,0.00,CLR,,0.24,WeatherDisplay:10.37,2013-08-01 22:20:00,
2013-08-01 18:24:00,81.0,71.5,29.85,North,0,0.0,0.0,73,0.00,CLR,,0.24,WeatherDisplay:10.37,2013-08-01 22:24:00,
2013-08-01 18:29:00,81.0,71.9,29.85,South,180,0.0,0.0,74,0.00,CLR,,0.24,WeatherDisplay:10.37,2013-08-01 22:29:00,
2013-08-01 18:35:00,80.8,71.3,29.85,SE,135,0.0,0.0,73,0.00,CLR,,0.24,WeatherDisplay:10.37,2013-08-01 22:35:00,
2013-08-01 18:40:00,80.4,69.7,29.85,SE,135,0.0,0.0,70,0.00,CLR,,0.24,WeatherDisplay:10.37,2013-08-01 22:40:00,
2013-08-01 18:45:00,80.4,70.6,29.85,SW,225,0.0,0.0,72,0.00,CLR,,0.24,WeatherDisplay:10.37,2013-08-01 22:45:00,
2013-08-01 18:51:00,80.2,71.2,29.85,SW,225,0.0,0.0,74,0.00,CLR,,0.24,WeatherDisplay:10.37,2013-08-01 22:51:00,
2013-08-01 18:56:00,80.1,71.4,29.88,West,270,0.0,0.0,75,0.00,CLR,,0.24,WeatherDisplay:10.37,2013-08-01 22:56:00,
2013-08-01 19:01:00,79.9,71.2,29.88,WSW,248,0.0,0.0,75,0.00,CLR,,0.24,WeatherDisplay:10.37,2013-08-01 23:01:00,
2013-08-01 19:06:00,79.7,71.8,29.88,WSW,248,0.0,0.0,77,0.00,CLR,,0.24,WeatherDisplay:10.37,2013-08-01 23:06:00,
2013-08-01 19:12:00,79.3,71.9,29.88,South,180,0.0,0.0,78,0.00,CLR,,0.24,WeatherDisplay:10.37,2013-08-01 23:12:00,
2013-08-01 19:17:00,79.0,71.9,29.88,South,180,0.0,0.0,79,0.00,CLR,,0.24,WeatherDisplay:10.37,2013-08-01 23:17:00,
2013-08-01 19:22:00,78.6,71.6,29.88,South,180,0.0,0.0,79,0.00,CLR,,0.24,WeatherDisplay:10.37,2013-08-01 23:22:00,
2013-08-01 19:27:00,78.1,71.4,29.88,West,270,0.0,0.0,80,0.00,CLR,,0.24,WeatherDisplay:10.37,2013-08-01 23:27:00,
2013-08-01 19:32:00,78.1,71.0,29.88,West,270,0.0,0.0,79,0.00,CLR,,0.24,WeatherDisplay:10.37,2013-08-01 23:32:00,
2013-08-01 19:37:00,77.7,71.1,29.88,West,270,0.0,0.0,80,0.00,CLR,,0.24,WeatherDisplay:10.37,2013-08-01 23:37:00,
2013-08-01 19:43:00,77.5,71.2,29.88,West,270,0.0,0.0,81,0.00,CLR,,0.24,WeatherDisplay:10.37,2013-08-01 23:43:00,
2013-08-01 19:48:00,77.2,70.9,29.88,West,270,0.0,0.0,81,0.00,CLR,,0.24,WeatherDisplay:10.37,2013-08-01 23:48:00,
2013-08-01 19:53:00,77.0,70.7,29.88,West,270,0.0,0.0,81,0.00,CLR,,0.24,WeatherDisplay:10.37,2013-08-01 23:53:00,
2013-08-01 19:58:00,76.8,71.3,29.88,West,270,0.0,0.0,83,0.00,CLR,,0.24,WeatherDisplay:10.37,2013-08-01 23:58:00,
2013-08-01 20:04:00,76.6,71.4,29.88,West,270,0.0,0.0,84,0.00,CLR,,0.24,WeatherDisplay:10.37,2013-08-02 00:04:00,
2013-08-01 20:09:00,76.5,71.3,29.88,West,270,0.0,0.0,84,0.00,CLR,,0.24,WeatherDisplay:10.37,2013-08-02 00:09:00,
2013-08-01 20:14:00,76.5,71.6,29.88,West,270,0.0,0.0,85,0.00,CLR,,0.24,WeatherDisplay:10.37,2013-08-02 00:14:00,
2013-08-01 20:19:00,76.3,71.8,29.88,West,270,0.0,0.0,86,0.00,CLR,,0.24,WeatherDisplay:10.37,2013-08-02 00:19:00,
2013-08-01 20:24:00,76.1,71.6,29.88,West,270,0.0,0.0,86,0.00,CLR,,0.24,WeatherDisplay:10.37,2013-08-02 00:24:00,
2013-08-01 20:29:00,75.9,71.4,29.88,West,270,0.0,0.0,86,0.00,CLR,,0.24,WeatherDisplay:10.37,2013-08-02 00:29:00,
2013-08-01 20:34:00,75.7,71.6,29.88,West,270,0.0,0.0,87,0.00,CLR,,0.24,WeatherDisplay:10.37,2013-08-02 00:34:00,
2013-08-01 20:39:00,75.6,71.4,29.88,West,270,0.0,0.0,87,0.00,CLR,,0.24,WeatherDisplay:10.37,2013-08-02 00:39:00,
2013-08-01 20:44:00,75.4,71.6,29.88,West,270,0.0,0.0,88,0.00,CLR,,0.24,WeatherDisplay:10.37,2013-08-02 00:44:00,
2013-08-01 20:51:00,75.2,71.7,29.88,West,270,0.0,0.0,89,0.00,CLR,,0.24,WeatherDisplay:10.37,2013-08-02 00:51:00,
2013-08-01 20:56:00,75.0,71.9,29.91,West,270,0.0,0.0,90,0.00,CLR,,0.24,WeatherDisplay:10.37,2013-08-02 00:56:00,
2013-08-01 21:01:00,75.0,71.9,29.91,West,270,0.0,0.0,90,0.00,CLR,,0.24,WeatherDisplay:10.37,2013-08-02 01:01:00,
2013-08-01 21:06:00,75.0,72.2,29.91,West,270,0.0,0.0,91,0.00,CLR,,0.24,WeatherDisplay:10.37,2013-08-02 01:06:00,
2013-08-01 21:11:00,75.0,72.2,29.91,West,270,0.0,0.0,91,0.00,CLR,,0.24,WeatherDisplay:10.37,2013-08-02 01:11:00,
2013-08-01 21:16:00,74.8,72.0,29.91,West,270,0.0,0.0,91,0.00,CLR,,0.24,WeatherDisplay:10.37,2013-08-02 01:16:00,
2013-08-01 21:22:00,74.7,71.5,29.91,West,270,0.0,0.0,90,0.00,CLR,,0.24,WeatherDisplay:10.37,2013-08-02 01:22:00,
2013-08-01 21:26:00,74.7,71.5,29.88,West,270,0.0,0.0,90,0.00,CLR,,0.24,WeatherDisplay:10.37,2013-08-02 01:26:00,
2013-08-01 21:32:00,74.5,71.7,29.88,West,270,0.0,0.0,91,0.00,CLR,,0.24,WeatherDisplay:10.37,2013-08-02 01:32:00,
2013-08-01 21:37:00,74.5,71.7,29.88,West,270,0.0,0.0,91,0.00,CLR,,0.24,WeatherDisplay:10.37,2013-08-02 01:37:00,
2013-08-01 21:42:00,74.3,71.5,29.91,West,270,0.0,0.0,91,0.00,CLR,,0.24,WeatherDisplay:10.37,2013-08-02 01:42:00,
2013-08-01 21:48:00,74.3,71.5,29.91,West,270,0.0,0.0,91,0.00,CLR,,0.24,WeatherDisplay:10.37,2013-08-02 01:48:00,
2013-08-01 21:53:00,74.1,71.6,29.91,West,270,0.0,0.0,92,0.00,CLR,,0.24,WeatherDisplay:10.37,2013-08-02 01:53:00,
2013-08-01 21:58:00,73.9,71.5,29.91,West,270,0.0,0.0,92,0.00,CLR,,0.24,WeatherDisplay:10.37,2013-08-02 01:58:00,
2013-08-01 22:03:00,73.9,71.5,29.91,West,270,0.0,0.0,92,0.00,CLR,,0.24,WeatherDisplay:10.37,2013-08-02 02:03:00,
2013-08-01 22:08:00,73.9,71.8,29.91,West,270,0.0,0.0,93,0.00,CLR,,0.24,WeatherDisplay:10.37,2013-08-02 02:08:00,
2013-08-01 22:14:00,73.8,71.6,29.91,West,270,0.0,0.0,93,0.00,CLR,,0.24,WeatherDisplay:10.37,2013-08-02 02:14:00,
2013-08-01 22:19:00,73.6,71.4,29.91,West,270,0.0,0.0,93,0.00,CLR,,0.24,WeatherDisplay:10.37,2013-08-02 02:19:00,
2013-08-01 22:24:00,73.6,71.4,29.91,West,270,0.0,0.0,93,0.00,CLR,,0.24,WeatherDisplay:10.37,2013-08-02 02:24:00,
2013-08-01 22:29:00,73.6,71.7,29.91,West,270,0.0,0.0,94,0.00,CLR,,0.24,WeatherDisplay:10.37,2013-08-02 02:29:00,
2013-08-01 22:35:00,73.4,71.6,29.91,West,270,0.0,0.0,94,0.00,CLR,,0.24,WeatherDisplay:10.37,2013-08-02 02:35:00,
2013-08-01 22:40:00,73.4,71.6,29.91,West,270,0.0,0.0,94,0.00,CLR,,0.24,WeatherDisplay:10.37,2013-08-02 02:40:00,
2013-08-01 22:45:00,73.2,71.7,29.91,West,270,0.0,0.0,95,0.00,CLR,,0.24,WeatherDisplay:10.37,2013-08-02 02:45:00,
2013-08-01 22:50:00,73.0,71.5,29.91,West,270,0.0,0.0,95,0.00,CLR,,0.24,WeatherDisplay:10.37,2013-08-02 02:50:00,
2013-08-01 22:55:00,73.0,71.5,29.91,West,270,0.0,0.0,95,0.00,CLR,,0.24,WeatherDisplay:10.37,2013-08-02 02:55:00,
2013-08-01 23:00:00,73.0,71.5,29.91,West,270,0.0,0.0,95,0.00,CLR,,0.24,WeatherDisplay:10.37,2013-08-02 03:00:00,
2013-08-01 23:05:00,73.0,71.8,29.91,West,270,0.0,0.0,96,0.00,CLR,,0.24,WeatherDisplay:10.37,2013-08-02 03:05:00,
2013-08-01 23:10:00,73.0,71.8,29.91,West,270,0.0,0.0,96,0.00,CLR,,0.24,WeatherDisplay:10.37,2013-08-02 03:10:00,
2013-08-01 23:16:00,72.9,71.7,29.91,West,270,0.0,0.0,96,0.00,CLR,,0.24,WeatherDisplay:10.37,2013-08-02 03:16:00,
2013-08-01 23:21:00,73.0,71.8,29.91,SSW,202,0.0,0.0,96,0.00,CLR,,0.24,WeatherDisplay:10.37,2013-08-02 03:21:00,
2013-08-01 23:26:00,73.0,71.8,29.94,NNE,22,0.0,0.0,96,0.00,CLR,,0.24,WeatherDisplay:10.37,2013-08-02 03:26:00,
2013-08-01 23:31:00,72.9,71.7,29.94,NNW,338,0.0,0.0,96,0.00,CLR,,0.24,WeatherDisplay:10.37,2013-08-02 03:31:00,
2013-08-01 23:37:00,73.0,70.6,29.94,North,0,0.0,0.0,92,0.00,CLR,,0.24,WeatherDisplay:10.37,2013-08-02 03:37:00,
2013-08-01 23:42:00,73.0,68.3,29.94,WSW,248,0.0,0.0,85,0.00,CLR,,0.24,WeatherDisplay:10.37,2013-08-02 03:42:00,
2013-08-01 23:47:00,73.0,65.8,29.94,NW,315,0.0,0.0,78,0.00,CLR,,0.24,WeatherDisplay:10.37,2013-08-02 03:47:00,
2013-08-01 23:53:00,73.0,64.3,29.94,WNW,292,0.0,0.0,74,0.00,CLR,,0.24,WeatherDisplay:10.37,2013-08-02 03:53:00,
2013-08-01 23:58:00,73.0,62.7,29.94,North,0,0.0,0.0,70,0.00,CLR,,0.24,WeatherDisplay:10.37,2013-08-02 03:58:00,